M I D A S
Marine Information and Data Acquisition System
Tripno 695 of the Zeeleeuw from 2004-04-15 06:10:35 to 2004-04-15 15:07:12
Back to CruiseResearch ActivitiesStationsMapUnderway DataData graphs

EquipmentUnitsComments
TimeDGPSUTC
LatitudeDGPSDM.mWGS84
LongitudeDGPSDM.mWGS84
SpeedMeteo Stationm/sRelative wind speed
DirectionMeteo StationdegRelative wind direction
TemperatureMeteo Stationdeg CelciusAir temperature
PressureMeteo StationPaAtmospheric pressure
HumidityMeteo Station%Relative humidity
Missing or incorrect values are displayed as -999
Metereological data collected by the RV Zeeleeuw from 2004-04-15 06:10:35 to 2004-04-15 15:07:12
                                                                                    Next 1000 lines
Time Latitude Longitude Speed Direction Temperature Pressure Humidity
2004-04-15 06:10:42 51°13.597 2°56.1 1.7 11 9 101690 74
2004-04-15 06:10:46 51°13.597 2°56.1 1.6 23 8.9 101690 74
2004-04-15 06:10:52 51°13.597 2°56.1 1.9 17 8.9 101690 74
2004-04-15 06:10:56 51°13.597 2°56.1 1.8 21 8.9 101690 74
2004-04-15 06:11:01 51°13.597 2°56.1 1.8 25 8.9 101690 74
2004-04-15 06:11:06 51°13.596 2°56.1 1.7 20 8.9 101690 74
2004-04-15 06:11:11 51°13.596 2°56.1 1.8 14 8.9 101690 74
2004-04-15 06:11:16 51°13.596 2°56.1 1.6 16 8.9 101690 74
2004-04-15 06:11:22 51°13.596 2°56.1 1.4 11 8.9 101690 74
2004-04-15 06:11:26 51°13.596 2°56.099 1.1 19 9 101690 74
2004-04-15 06:11:31 51°13.596 2°56.097 1.2 25 9 101690 74
2004-04-15 06:11:36 51°13.597 2°56.095 1.1 35 9 101690 74
2004-04-15 06:11:41 51°13.597 2°56.092 0.8 43 9 101690 74
2004-04-15 06:11:46 51°13.598 2°56.088 0.4 44 9 101690 74
2004-04-15 06:11:52 51°13.599 2°56.083 0.4 44 9 101690 74
2004-04-15 06:11:56 51°13.6 2°56.078 0.5 47 9 101690 74
2004-04-15 06:12:02 51°13.602 2°56.071 0.5 63 9 101690 74
2004-04-15 06:12:07 51°13.604 2°56.065 1 102 9 101690 74
2004-04-15 06:12:12 51°13.606 2°56.058 1.1 104 9 101690 74
2004-04-15 06:12:17 51°13.607 2°56.051 0.7 104 9 101690 74
2004-04-15 06:12:22 51°13.609 2°56.044 0.7 115 9 101690 74
2004-04-15 06:12:27 51°13.611 2°56.036 0.9 115 9 101690 74
2004-04-15 06:12:32 51°13.613 2°56.028 1 116 9 101690 74
2004-04-15 06:12:37 51°13.615 2°56.02 0.7 120 9 101690 74
2004-04-15 06:12:42 51°13.617 2°56.012 0.8 134 9 101690 74
2004-04-15 06:12:47 51°13.62 2°56.003 0.9 140 9 101690 74
2004-04-15 06:12:52 51°13.622 2°55.995 1 147 9 101690 74
2004-04-15 06:12:57 51°13.625 2°55.986 0.9 146 9 101690 74
2004-04-15 06:13:02 51°13.627 2°55.976 1.1 146 9.1 101690 74
2004-04-15 06:13:07 51°13.63 2°55.967 1.1 146 9.1 101690 74
2004-04-15 06:13:12 51°13.633 2°55.957 1.2 134 9.1 101690 74
2004-04-15 06:13:17 51°13.636 2°55.948 1.2 118 9.1 101690 74
2004-04-15 06:13:22 51°13.639 2°55.938 0.9 124 9.1 101690 74
2004-04-15 06:13:27 51°13.642 2°55.929 0.8 133 9.1 101690 74
2004-04-15 06:13:32 51°13.646 2°55.919 0.7 127 9.1 101690 74
2004-04-15 06:13:37 51°13.649 2°55.91 0.7 134 9.1 101690 74
2004-04-15 06:13:42 51°13.652 2°55.901 0.8 133 9 101690 74
2004-04-15 06:13:47 51°13.656 2°55.891 0.9 151 9 101690 74
2004-04-15 06:13:52 51°13.659 2°55.881 0.8 151 9.1 101690 74
2004-04-15 06:13:57 51°13.662 2°55.872 0.8 149 9.1 101690 74
2004-04-15 06:14:02 51°13.665 2°55.862 0.5 149 9.1 101690 74
2004-04-15 06:14:07 51°13.668 2°55.852 0.8 127 9 101690 74
2004-04-15 06:14:12 51°13.67 2°55.841 1.1 121 9.1 101690 74
2004-04-15 06:14:17 51°13.672 2°55.831 1 99 9.1 101690 74
2004-04-15 06:14:23 51°13.674 2°55.818 1.1 117 9.1 101690 74
2004-04-15 06:14:27 51°13.675 2°55.809 1.2 116 9.1 101690 73
2004-04-15 06:14:32 51°13.676 2°55.798 1.2 122 9 101690 73
2004-04-15 06:14:37 51°13.677 2°55.787 1.5 126 9 101690 73
2004-04-15 06:14:42 51°13.678 2°55.777 1.5 128 9 101690 73
2004-04-15 06:14:47 51°13.678 2°55.767 1.4 153 9 101690 73
2004-04-15 06:14:52 51°13.679 2°55.759 1.2 136 9 101690 73
2004-04-15 06:14:57 51°13.679 2°55.752 1.1 136 9.1 101690 73
2004-04-15 06:15:01 51°13.679 2°55.748 1.1 146 9.1 101690 73
2004-04-15 06:15:06 51°13.679 2°55.745 1 127 9.1 101690 73
2004-04-15 06:15:11 51°13.679 2°55.743 1.1 101 9.1 101690 73
2004-04-15 06:15:16 51°13.68 2°55.742 1.2 66 9.1 101690 73
2004-04-15 06:15:20 51°13.68 2°55.742 1.3 61 9.1 101690 73
2004-04-15 06:15:26 51°13.681 2°55.743 1.2 72 9.1 101690 73
2004-04-15 06:15:31 51°13.682 2°55.745 1.7 73 9.1 101690 73
2004-04-15 06:15:36 51°13.684 2°55.747 2.3 78 9.1 101690 73
2004-04-15 06:15:42 51°13.686 2°55.75 2.5 79 9.1 101690 73
2004-04-15 06:15:46 51°13.688 2°55.752 2.4 88 9.1 101690 73
2004-04-15 06:15:51 51°13.691 2°55.754 2.2 102 9.1 101690 73
2004-04-15 06:15:56 51°13.695 2°55.756 2.9 88 9.1 101690 73
2004-04-15 06:16:02 51°13.699 2°55.759 2.9 94 9.1 101690 73
2004-04-15 06:16:06 51°13.703 2°55.76 2.4 106 9.1 101690 73
2004-04-15 06:16:12 51°13.708 2°55.761 2.4 105 9.1 101690 73
2004-04-15 06:16:16 51°13.712 2°55.762 2.6 113 9.1 101690 73
2004-04-15 06:16:21 51°13.716 2°55.762 2.7 115 9.1 101690 73
2004-04-15 06:16:26 51°13.721 2°55.761 2.8 133 9.1 101690 73
2004-04-15 06:16:31 51°13.724 2°55.761 2.9 142 9.1 101690 73
2004-04-15 06:16:36 51°13.727 2°55.761 3 160 9.1 101690 73
2004-04-15 06:16:41 51°13.728 2°55.761 3.5 166 9.1 101690 73
2004-04-15 06:16:46 51°13.729 2°55.762 3.4 160 9.1 101690 73
2004-04-15 06:16:51 51°13.728 2°55.763 3.7 163 9.1 101690 73
2004-04-15 06:16:56 51°13.728 2°55.765 3.1 169 9.1 101690 73
2004-04-15 06:17:01 51°13.726 2°55.766 3.5 164 9.1 101690 73
2004-04-15 06:17:07 51°13.725 2°55.768 3.1 166 9.1 101690 73
2004-04-15 06:17:12 51°13.725 2°55.769 3.3 159 9.1 101690 73
2004-04-15 06:17:17 51°13.725 2°55.77 2.7 168 9.1 101690 73
2004-04-15 06:17:22 51°13.726 2°55.769 2.1 165 9.1 101690 73
2004-04-15 06:17:27 51°13.728 2°55.767 1.8 165 9.1 101690 73
2004-04-15 06:17:32 51°13.732 2°55.763 1.4 162 9.1 101690 73
2004-04-15 06:17:36 51°13.734 2°55.759 0.8 162 9.1 101690 73
2004-04-15 06:17:42 51°13.74 2°55.75 0.9 341 9.1 101690 73
2004-04-15 06:17:47 51°13.745 2°55.742 1.4 10 9.1 101690 73
2004-04-15 06:17:51 51°13.75 2°55.734 1.7 14 9.1 101690 73
2004-04-15 06:17:56 51°13.756 2°55.725 1.4 17 9.1 101690 73
2004-04-15 06:18:01 51°13.763 2°55.715 1.2 12 9.1 101690 73
2004-04-15 06:18:06 51°13.769 2°55.705 1.4 9 9.1 101690 73
2004-04-15 06:18:11 51°13.776 2°55.695 1.6 10 9.1 101690 73
2004-04-15 06:18:16 51°13.782 2°55.686 1.6 8 9.1 101690 73
2004-04-15 06:18:21 51°13.789 2°55.676 1.4 4 9.1 101690 73
2004-04-15 06:18:26 51°13.797 2°55.667 1.6 5 9.1 101690 73
2004-04-15 06:18:32 51°13.806 2°55.656 1.4 5 9.1 101690 73
2004-04-15 06:18:36 51°13.812 2°55.65 1.2 11 9.1 101690 73
2004-04-15 06:18:41 51°13.82 2°55.641 1.2 33 9.1 101690 73
2004-04-15 06:18:46 51°13.828 2°55.634 1.3 48 9.1 101690 73
2004-04-15 06:18:51 51°13.837 2°55.627 1 48 9.1 101690 73
2004-04-15 06:18:56 51°13.846 2°55.621 0.9 63 9.1 101690 73
2004-04-15 06:19:02 51°13.856 2°55.614 1.2 91 9.1 101690 73
2004-04-15 06:19:06 51°13.864 2°55.609 1.1 68 9.1 101690 73
2004-04-15 06:19:11 51°13.873 2°55.602 1.1 50 9.1 101690 73
2004-04-15 06:19:16 51°13.882 2°55.596 1.3 50 9.1 101690 73
2004-04-15 06:19:22 51°13.894 2°55.59 1.1 75 9.1 101690 73
2004-04-15 06:19:26 51°13.901 2°55.585 0.9 43 9.1 101690 73
2004-04-15 06:19:31 51°13.911 2°55.578 1.7 39 9.1 101690 73
2004-04-15 06:19:36 51°13.92 2°55.572 1.5 41 9.1 101690 73
2004-04-15 06:19:41 51°13.93 2°55.566 1.6 25 9.1 101690 73
2004-04-15 06:19:46 51°13.94 2°55.56 1.9 27 9.1 101690 73
2004-04-15 06:19:51 51°13.949 2°55.554 2.1 43 9.1 101690 73
2004-04-15 06:19:56 51°13.959 2°55.548 1.8 38 9.1 101690 73
2004-04-15 06:20:02 51°13.971 2°55.542 2.1 50 9.1 101690 73
2004-04-15 06:20:06 51°13.979 2°55.537 1.8 54 9.1 101690 73
2004-04-15 06:20:11 51°13.989 2°55.531 1.5 61 9.1 101690 73
2004-04-15 06:20:16 51°13.998 2°55.525 1.2 75 9.1 101690 73
2004-04-15 06:20:22 51°14.01 2°55.518 1.5 67 9.1 101690 73
2004-04-15 06:20:26 51°14.018 2°55.513 1.3 60 9.1 101690 73
2004-04-15 06:20:31 51°14.028 2°55.506 1.2 45 9.1 101690 73
2004-04-15 06:20:36 51°14.038 2°55.5 0.6 44 9.1 101690 73
2004-04-15 06:20:40 51°14.046 2°55.495 0.6 44 9.1 101690 73
2004-04-15 06:20:46 51°14.057 2°55.487 1.1 44 9.1 101690 72
2004-04-15 06:20:51 51°14.067 2°55.48 1 35 9.1 101690 72
2004-04-15 06:20:57 51°14.08 2°55.472 1.2 31 9.1 101690 72
2004-04-15 06:21:01 51°14.088 2°55.467 1.1 32 9.1 101690 72
2004-04-15 06:21:05 51°14.097 2°55.461 1 32 9.1 101690 72
2004-04-15 06:21:11 51°14.11 2°55.452 1.1 32 9.1 101690 72
2004-04-15 06:21:16 51°14.121 2°55.444 0.8 31 9.1 101690 72
2004-04-15 06:21:22 51°14.134 2°55.434 0.9 31 9.1 101690 72
2004-04-15 06:21:26 51°14.143 2°55.428 1 27 9.1 101690 72
2004-04-15 06:21:31 51°14.154 2°55.419 1.1 24 9.1 101690 72
2004-04-15 06:21:36 51°14.165 2°55.41 1.4 20 9.1 101690 72
2004-04-15 06:21:41 51°14.176 2°55.4 1.1 20 9.1 101690 72
2004-04-15 06:21:46 51°14.187 2°55.389 1.5 16 9.1 101690 72
2004-04-15 06:21:51 51°14.198 2°55.377 1.5 11 9.1 101690 72
2004-04-15 06:21:56 51°14.209 2°55.364 1.6 354 9.1 101690 72
2004-04-15 06:22:02 51°14.222 2°55.347 1.6 334 9.1 101690 72
2004-04-15 06:22:07 51°14.233 2°55.332 1 327 9.2 101690 72
2004-04-15 06:22:11 51°14.241 2°55.319 2.1 323 9.2 101690 72
2004-04-15 06:22:16 51°14.252 2°55.303 2.4 327 9.2 101690 72
2004-04-15 06:22:21 51°14.263 2°55.286 2.1 319 9.2 101690 72
2004-04-15 06:22:26 51°14.273 2°55.268 2.1 324 9.2 101690 72
2004-04-15 06:22:31 51°14.282 2°55.249 2.4 328 9.2 101690 72
2004-04-15 06:22:36 51°14.292 2°55.229 1.9 325 9.2 101690 72
2004-04-15 06:22:42 51°14.303 2°55.205 3.1 330 9.2 101690 72
2004-04-15 06:22:46 51°14.311 2°55.188 2.8 332 9.2 101690 72
2004-04-15 06:22:51 51°14.32 2°55.167 3.1 330 9.2 101690 72
2004-04-15 06:22:56 51°14.329 2°55.145 3.5 330 9.2 101690 72
2004-04-15 06:23:01 51°14.338 2°55.122 3.6 332 9.2 101680 72
2004-04-15 06:23:06 51°14.346 2°55.1 3.1 326 9.2 101680 72
2004-04-15 06:23:11 51°14.356 2°55.077 3 331 9.2 101680 72
2004-04-15 06:23:16 51°14.365 2°55.055 3.5 339 9.2 101680 72
2004-04-15 06:23:21 51°14.374 2°55.031 3.1 339 9.2 101680 72
2004-04-15 06:23:26 51°14.384 2°55.008 3 327 9.2 101680 72
2004-04-15 06:23:31 51°14.394 2°54.983 3.1 335 9.2 101680 72
2004-04-15 06:23:36 51°14.403 2°54.959 4 332 9.2 101680 72
2004-04-15 06:23:42 51°14.414 2°54.928 3.7 41 9.2 101680 73
2004-04-15 06:23:46 51°14.421 2°54.907 3.6 318 9.2 101680 73
2004-04-15 06:23:51 51°14.431 2°54.882 4.1 331 9.2 101680 73
2004-04-15 06:23:56 51°14.44 2°54.856 3.2 331 9.2 101680 73
2004-04-15 06:24:02 51°14.451 2°54.824 3.4 318 9.2 101680 73
2004-04-15 06:24:06 51°14.459 2°54.803 3.5 313 9.2 101680 72
2004-04-15 06:24:11 51°14.468 2°54.777 3.2 318 9.2 101680 72
2004-04-15 06:24:16 51°14.477 2°54.75 4 42 9.2 101680 72
2004-04-15 06:24:22 51°14.488 2°54.718 4.2 38 9.2 101680 72
2004-04-15 06:24:26 51°14.496 2°54.697 3.6 318 9.2 101680 72
2004-04-15 06:24:31 51°14.505 2°54.67 3.7 333 9.3 101680 72
2004-04-15 06:24:36 51°14.514 2°54.642 4.5 329 9.3 101680 72
2004-04-15 06:24:41 51°14.523 2°54.615 4.3 321 9.2 101680 72
2004-04-15 06:24:46 51°14.532 2°54.588 3.8 327 9.2 101680 72
2004-04-15 06:24:51 51°14.541 2°54.561 3.6 227 9.3 101680 72
2004-04-15 06:24:56 51°14.55 2°54.534 3.7 327 9.3 101680 72
2004-04-15 06:25:01 51°14.559 2°54.507 3.8 323 9.3 101680 72
2004-04-15 06:25:06 51°14.568 2°54.48 3.5 328 9.3 101680 72
2004-04-15 06:25:11 51°14.577 2°54.452 3.4 332 9.3 101680 72
2004-04-15 06:25:16 51°14.586 2°54.425 3.6 334 9.3 101680 72
2004-04-15 06:25:21 51°14.595 2°54.398 3.6 337 9.3 101680 72
2004-04-15 06:25:26 51°14.605 2°54.371 3.6 334 9.3 101680 72
2004-04-15 06:25:32 51°14.616 2°54.339 3.5 341 9.3 101680 72
2004-04-15 06:25:36 51°14.623 2°54.317 4 339 9.3 101680 72
2004-04-15 06:25:41 51°14.632 2°54.29 4.2 337 9.3 101680 72
2004-04-15 06:25:47 51°14.643 2°54.257 4.6 344 9.3 101670 72
2004-04-15 06:25:51 51°14.65 2°54.235 4.3 332 9.3 101670 72
2004-04-15 06:25:56 51°14.659 2°54.208 4.6 325 9.3 101680 72
2004-04-15 06:26:02 51°14.67 2°54.175 4.6 323 9.3 101680 72
2004-04-15 06:26:06 51°14.678 2°54.153 4.1 326 9.3 101670 72
2004-04-15 06:26:11 51°14.687 2°54.126 4 340 9.4 101670 72
2004-04-15 06:26:16 51°14.696 2°54.099 3.9 339 9.4 101670 72
2004-04-15 06:26:21 51°14.705 2°54.072 4.6 333 9.4 101670 72
2004-04-15 06:26:26 51°14.714 2°54.045 4.1 337 9.4 101680 72
2004-04-15 06:26:31 51°14.723 2°54.018 4.3 328 9.4 101680 72
2004-04-15 06:26:36 51°14.732 2°53.991 4.2 333 9.4 101680 72
2004-04-15 06:26:42 51°14.743 2°53.959 4.5 341 9.4 101680 72
2004-04-15 06:26:46 51°14.75 2°53.937 4 333 9.4 101670 72
2004-04-15 06:26:51 51°14.759 2°53.91 4.3 328 9.4 101670 72
2004-04-15 06:26:56 51°14.768 2°53.883 4.2 330 9.4 101670 72
2004-04-15 06:27:01 51°14.777 2°53.856 3.9 327 9.4 101670 72
2004-04-15 06:27:06 51°14.786 2°53.829 4.1 321 9.5 101680 72
2004-04-15 06:27:12 51°14.797 2°53.797 4 333 9.5 101680 72
2004-04-15 06:27:16 51°14.804 2°53.775 4.4 329 9.5 101680 72
2004-04-15 06:27:21 51°14.813 2°53.748 3.8 328 9.5 101680 72
2004-04-15 06:27:26 51°14.822 2°53.721 3.7 325 9.5 101670 72
2004-04-15 06:27:31 51°14.831 2°53.694 3.8 321 9.5 101670 71
2004-04-15 06:27:36 51°14.84 2°53.667 3.8 319 9.5 101670 71
2004-04-15 06:27:42 51°14.851 2°53.634 4.1 329 9.5 101680 71
2004-04-15 06:27:47 51°14.86 2°53.607 4 328 9.5 101680 71
2004-04-15 06:27:52 51°14.869 2°53.58 3.9 324 9.5 101680 71
2004-04-15 06:27:56 51°14.876 2°53.558 4 331 9.5 101680 71
2004-04-15 06:28:01 51°14.885 2°53.531 3.7 326 9.5 101680 71
2004-04-15 06:28:06 51°14.894 2°53.504 3.8 330 9.5 101670 71
2004-04-15 06:28:11 51°14.904 2°53.477 3.9 331 9.5 101670 71
2004-04-15 06:28:16 51°14.913 2°53.45 3.6 334 9.6 101680 71
2004-04-15 06:28:21 51°14.922 2°53.422 3.6 331 9.6 101680 71
2004-04-15 06:28:26 51°14.931 2°53.395 4 332 9.6 101670 71
2004-04-15 06:28:31 51°14.94 2°53.367 4 331 9.6 101670 71
2004-04-15 06:28:36 51°14.949 2°53.34 3.8 328 9.6 101680 71
2004-04-15 06:28:42 51°14.96 2°53.307 4.2 336 9.6 101680 71
2004-04-15 06:28:46 51°14.967 2°53.285 4.5 328 9.6 101680 71
2004-04-15 06:28:51 51°14.976 2°53.258 4 324 9.6 101670 71
2004-04-15 06:28:56 51°14.985 2°53.23 4.4 335 9.6 101670 71
2004-04-15 06:29:02 51°14.996 2°53.197 4.1 340 9.6 101680 71
2004-04-15 06:29:06 51°15.003 2°53.175 4.2 331 9.6 101680 71
2004-04-15 06:29:11 51°15.012 2°53.148 4.2 332 9.6 101680 71
2004-04-15 06:29:16 51°15.019 2°53.119 4.5 339 9.6 101670 71
2004-04-15 06:29:22 51°15.029 2°53.085 4.2 328 9.6 101670 71
2004-04-15 06:29:26 51°15.034 2°53.062 4.1 329 9.6 101680 71
2004-04-15 06:29:31 51°15.042 2°53.034 4.2 331 9.6 101680 71
2004-04-15 06:29:36 51°15.049 2°53.005 4.6 332 9.6 101680 71
2004-04-15 06:29:42 51°15.057 2°52.97 4.3 333 9.6 101680 71
2004-04-15 06:29:46 51°15.063 2°52.947 4.6 329 9.6 101680 71
2004-04-15 06:29:51 51°15.07 2°52.918 4.7 331 9.6 101680 71
2004-04-15 06:29:56 51°15.078 2°52.889 4.5 326 9.6 101670 71
2004-04-15 06:30:01 51°15.085 2°52.86 4.7 333 9.6 101670 72
2004-04-15 06:30:06 51°15.092 2°52.831 4.1 325 9.6 101670 72
2004-04-15 06:30:12 51°15.1 2°52.797 4.2 329 9.6 101680 72
2004-04-15 06:30:16 51°15.106 2°52.773 4.4 338 9.6 101680 72
2004-04-15 06:30:21 51°15.113 2°52.745 4.7 333 9.6 101680 72
2004-04-15 06:30:26 51°15.121 2°52.716 4.2 329 9.6 101670 72
2004-04-15 06:30:31 51°15.128 2°52.687 4.3 326 9.6 101670 72
2004-04-15 06:30:36 51°15.135 2°52.658 4.2 325 9.6 101680 72
2004-04-15 06:30:41 51°15.143 2°52.629 4.1 325 9.6 101680 72
2004-04-15 06:30:46 51°15.15 2°52.6 4.4 325 9.6 101680 72
2004-04-15 06:30:51 51°15.157 2°52.571 4.1 323 9.6 101680 72
2004-04-15 06:30:56 51°15.164 2°52.542 4.3 325 9.6 101670 72
2004-04-15 06:31:02 51°15.173 2°52.507 4.1 321 9.6 101670 72
2004-04-15 06:31:07 51°15.18 2°52.478 4.5 323 9.7 101680 72
2004-04-15 06:31:11 51°15.186 2°52.455 4.2 321 9.7 101680 72
2004-04-15 06:31:16 51°15.193 2°52.426 3.9 323 9.6 101670 72
2004-04-15 06:31:22 51°15.202 2°52.392 4.3 330 9.6 101670 72
2004-04-15 06:31:27 51°15.209 2°52.363 4.2 329 9.6 101670 72
2004-04-15 06:31:31 51°15.215 2°52.34 4 334 9.6 101670 72
2004-04-15 06:31:36 51°15.222 2°52.311 4.5 342 9.6 101670 72
2004-04-15 06:31:42 51°15.231 2°52.276 4.3 337 9.6 101670 72
2004-04-15 06:31:46 51°15.237 2°52.253 4.2 331 9.6 101670 72
2004-04-15 06:31:51 51°15.244 2°52.224 4.2 337 9.6 101670 72
2004-04-15 06:31:56 51°15.251 2°52.195 4.2 332 9.6 101670 72
2004-04-15 06:32:01 51°15.258 2°52.165 4.4 329 9.6 101670 72
2004-04-15 06:32:06 51°15.263 2°52.135 4.7 321 9.6 101670 72
2004-04-15 06:32:11 51°15.269 2°52.105 4.9 325 9.6 101670 72
2004-04-15 06:32:16 51°15.274 2°52.075 4.9 227 9.6 101670 72
2004-04-15 06:32:22 51°15.28 2°52.039 4.7 317 9.6 101670 72
2004-04-15 06:32:26 51°15.284 2°52.015 4.8 317 9.6 101670 72
2004-04-15 06:32:31 51°15.288 2°51.984 4.6 319 9.6 101670 72
2004-04-15 06:32:36 51°15.293 2°51.954 5.3 324 9.6 101670 72
2004-04-15 06:32:41 51°15.298 2°51.923 5.1 318 9.6 101670 72
2004-04-15 06:32:46 51°15.302 2°51.893 4.9 327 9.6 101670 72
2004-04-15 06:32:51 51°15.307 2°51.862 4.5 327 9.6 101670 72
2004-04-15 06:32:56 51°15.312 2°51.832 4.7 329 9.6 101670 72
2004-04-15 06:33:01 51°15.317 2°51.801 5.1 333 9.6 101670 72
2004-04-15 06:33:06 51°15.32 2°51.77 5.1 322 9.6 101670 72
2004-04-15 06:33:11 51°15.323 2°51.739 5.2 330 9.6 101670 72
2004-04-15 06:33:16 51°15.326 2°51.708 5.4 330 9.6 101670 72
2004-04-15 06:33:22 51°15.328 2°51.671 5.6 332 9.6 101670 72
2004-04-15 06:33:27 51°15.329 2°51.639 6.2 329 9.6 101670 72
2004-04-15 06:33:31 51°15.329 2°51.615 6.2 324 9.6 101670 72
2004-04-15 06:33:36 51°15.328 2°51.583 7.1 327 9.6 101670 72
2004-04-15 06:33:42 51°15.325 2°51.546 7.2 322 9.6 101670 73
2004-04-15 06:33:46 51°15.323 2°51.521 7.3 329 9.6 101670 73
2004-04-15 06:33:51 51°15.32 2°51.489 7 322 9.6 101670 73
2004-04-15 06:33:56 51°15.317 2°51.459 7 325 9.6 101670 73
2004-04-15 06:34:02 51°15.312 2°51.421 7.5 321 9.6 101670 73
2004-04-15 06:34:06 51°15.309 2°51.396 6.8 327 9.6 101660 73
2004-04-15 06:34:11 51°15.305 2°51.365 7.3 325 9.6 101660 73
2004-04-15 06:34:16 51°15.301 2°51.334 7.1 327 9.6 101660 73
2004-04-15 06:34:21 51°15.297 2°51.303 7.5 327 9.6 101660 73
2004-04-15 06:34:26 51°15.293 2°51.272 7.2 325 9.6 101660 73
2004-04-15 06:34:31 51°15.29 2°51.241 7.5 327 9.6 101660 73
2004-04-15 06:34:36 51°15.286 2°51.21 7.2 326 9.6 101670 73
2004-04-15 06:34:41 51°15.282 2°51.179 7.6 325 9.6 101660 73
2004-04-15 06:34:47 51°15.278 2°51.141 7.2 326 9.6 101660 73
2004-04-15 06:34:51 51°15.275 2°51.116 7.2 324 9.6 101670 72
2004-04-15 06:34:56 51°15.271 2°51.085 6.9 330 9.6 101670 72
2004-04-15 06:35:02 51°15.267 2°51.048 7.6 321 9.6 101670 72
2004-04-15 06:35:06 51°15.264 2°51.022 7.1 324 9.6 101660 73
2004-04-15 06:35:11 51°15.261 2°50.991 7.2 328 9.6 101660 73
2004-04-15 06:35:16 51°15.257 2°50.96 7.5 329 9.6 101660 73
2004-04-15 06:35:22 51°15.253 2°50.923 7.5 323 9.6 101660 73
2004-04-15 06:35:26 51°15.25 2°50.898 7.6 326 9.6 101660 73
2004-04-15 06:35:31 51°15.247 2°50.866 7.3 323 9.6 101660 73
2004-04-15 06:35:35 51°15.244 2°50.841 7.4 330 9.6 101660 73
2004-04-15 06:35:42 51°15.239 2°50.797 7.6 323 9.6 101660 73
2004-04-15 06:35:47 51°15.236 2°50.766 7.6 327 9.6 101660 73
2004-04-15 06:35:51 51°15.233 2°50.741 7.1 328 9.6 101660 73
2004-04-15 06:35:56 51°15.23 2°50.71 7.7 323 9.6 101660 73
2004-04-15 06:36:02 51°15.225 2°50.672 7.4 324 9.6 101660 73
2004-04-15 06:36:06 51°15.223 2°50.647 7.3 327 9.6 101660 73
2004-04-15 06:36:11 51°15.219 2°50.616 7.2 329 9.6 101660 73
2004-04-15 06:36:16 51°15.216 2°50.585 7.2 327 9.6 101660 73
2004-04-15 06:36:21 51°15.213 2°50.553 7.6 326 9.6 101660 73
2004-04-15 06:36:27 51°15.209 2°50.516 7.5 327 9.6 101660 73
2004-04-15 06:36:32 51°15.206 2°50.485 7.1 329 9.6 101660 73
2004-04-15 06:36:36 51°15.203 2°50.46 7.2 324 9.6 101660 73
2004-04-15 06:36:41 51°15.2 2°50.429 7.7 327 9.6 101660 73
2004-04-15 06:36:46 51°15.197 2°50.397 7.4 325 9.6 101660 73
2004-04-15 06:36:51 51°15.194 2°50.366 7.5 327 9.6 101660 73
2004-04-15 06:36:56 51°15.19 2°50.335 7.4 327 9.6 101660 73
2004-04-15 06:37:02 51°15.187 2°50.297 7.9 326 9.6 101660 73
2004-04-15 06:37:07 51°15.183 2°50.266 7.6 322 9.6 101660 73
2004-04-15 06:37:12 51°15.18 2°50.234 8 326 9.6 101660 73
2004-04-15 06:37:16 51°15.178 2°50.209 7.9 323 9.6 101660 73
2004-04-15 06:37:22 51°15.174 2°50.172 7.7 322 9.6 101660 73
2004-04-15 06:37:27 51°15.171 2°50.14 7.5 323 9.5 101660 73
2004-04-15 06:37:32 51°15.168 2°50.109 7.3 327 9.5 101660 73
2004-04-15 06:37:36 51°15.166 2°50.084 7.9 323 9.5 101660 73
2004-04-15 06:37:41 51°15.163 2°50.053 7.3 324 9.5 101660 73
2004-04-15 06:37:47 51°15.159 2°50.015 7.2 326 9.5 101660 73
2004-04-15 06:37:51 51°15.156 2°49.99 7.5 324 9.5 101660 73
2004-04-15 06:37:56 51°15.153 2°49.959 7.5 325 9.5 101660 73
2004-04-15 06:38:01 51°15.15 2°49.928 7.9 324 9.5 101660 73
2004-04-15 06:38:07 51°15.146 2°49.89 8.2 321 9.5 101660 73
2004-04-15 06:38:11 51°15.144 2°49.865 7.5 320 9.5 101660 73
2004-04-15 06:38:16 51°15.141 2°49.834 8.1 320 9.5 101660 73
2004-04-15 06:38:21 51°15.138 2°49.803 7.7 322 9.5 101660 73
2004-04-15 06:38:26 51°15.135 2°49.772 8.2 324 9.5 101660 73
2004-04-15 06:38:31 51°15.132 2°49.74 8.1 320 9.5 101660 73
2004-04-15 06:38:36 51°15.129 2°49.709 7.8 320 9.5 101660 73
2004-04-15 06:38:41 51°15.126 2°49.678 7.8 317 9.5 101660 73
2004-04-15 06:38:46 51°15.123 2°49.647 7.7 322 9.5 101660 73
2004-04-15 06:38:51 51°15.12 2°49.616 8.4 317 9.5 101660 74
2004-04-15 06:38:55 51°15.117 2°49.591 7.5 320 9.5 101660 74
2004-04-15 06:39:01 51°15.114 2°49.554 7.7 327 9.5 101660 74
2004-04-15 06:39:06 51°15.111 2°49.523 7.8 326 9.5 101660 74
2004-04-15 06:39:11 51°15.108 2°49.491 7.7 319 9.5 101660 74
2004-04-15 06:39:16 51°15.105 2°49.46 8.6 316 9.4 101660 74
2004-04-15 06:39:21 51°15.102 2°49.429 7.5 323 9.4 101660 74
2004-04-15 06:39:26 51°15.099 2°49.398 7.7 320 9.4 101660 74
2004-04-15 06:39:32 51°15.096 2°49.361 8.6 318 9.4 101660 74
2004-04-15 06:39:36 51°15.093 2°49.336 8.1 325 9.4 101660 74
2004-04-15 06:39:42 51°15.09 2°49.298 7.6 322 9.4 101660 74
2004-04-15 06:39:46 51°15.088 2°49.273 7.6 320 9.4 101660 74
2004-04-15 06:39:51 51°15.085 2°49.242 7.5 325 9.4 101660 74
2004-04-15 06:39:56 51°15.082 2°49.211 7.5 321 9.4 101660 74
2004-04-15 06:40:01 51°15.079 2°49.18 7.1 323 9.4 101660 74
2004-04-15 06:40:06 51°15.076 2°49.149 7.3 320 9.4 101660 74
2004-04-15 06:40:11 51°15.074 2°49.118 7.5 318 9.4 101660 74
2004-04-15 06:40:15 51°15.072 2°49.093 7.8 323 9.4 101660 74
2004-04-15 06:40:22 51°15.068 2°49.049 7.2 322 9.3 101660 74
2004-04-15 06:40:26 51°15.066 2°49.024 7.7 320 9.3 101660 74
2004-04-15 06:40:31 51°15.063 2°48.993 7.9 323 9.3 101660 74
2004-04-15 06:40:36 51°15.06 2°48.962 7.6 328 9.3 101660 74
2004-04-15 06:40:41 51°15.057 2°48.93 7.4 323 9.3 101660 75
2004-04-15 06:40:47 51°15.054 2°48.893 7.8 322 9.3 101660 75
2004-04-15 06:40:51 51°15.052 2°48.868 7.9 317 9.3 101660 75
2004-04-15 06:40:56 51°15.049 2°48.837 7.8 323 9.3 101660 75
2004-04-15 06:41:01 51°15.046 2°48.806 8.2 322 9.3 101660 75
2004-04-15 06:41:06 51°15.043 2°48.775 7.9 321 9.3 101660 75
2004-04-15 06:41:12 51°15.04 2°48.737 8.2 319 9.3 101660 75
2004-04-15 06:41:16 51°15.038 2°48.713 8 318 9.3 101660 75
2004-04-15 06:41:21 51°15.035 2°48.681 7.8 317 9.3 101660 75
2004-04-15 06:41:26 51°15.032 2°48.651 8.2   9.3 101660 75
2004-04-15 06:41:31 51°15.029 2°48.62 8.3 320 9.3 101660 75
2004-04-15 06:41:36 51°15.026 2°48.589 8.1 317 9.3 101660 75
2004-04-15 06:41:41 51°15.022 2°48.558 8.6 321 9.3 101660 75
2004-04-15 06:41:46 51°15.018 2°48.528 8.5 322 9.3 101660 75
2004-04-15 06:41:51 51°15.013 2°48.497 8.4 321 9.3 101660 75
2004-04-15 06:41:56 51°15.009 2°48.467 9.1 318 9.3 101660 75
2004-04-15 06:42:01 51°15.004 2°48.437 8.2 40 9.3 101660 75
2004-04-15 06:42:07 51°15.002 2°48.4 7.8 42 9.3 101660 75
2004-04-15 06:42:11 51°15.001 2°48.375 7 318 9.3 101660 75
2004-04-15 06:42:16 51°15.001 2°48.344 7.5 227 9.3 101660 75
2004-04-15 06:42:21 51°15.001 2°48.313 7 228 9.3 101660 75
2004-04-15 06:42:26 51°15.003 2°48.282 6.8 318 9.3 101660 75
2004-04-15 06:42:31 51°15.004 2°48.251 6.7 316 9.2 101660 75
2004-04-15 06:42:36 51°15.006 2°48.22 6.7 43 9.2 101660 75
2004-04-15 06:42:42 51°15.009 2°48.183 7 43 9.2 101660 75
2004-04-15 06:42:47 51°15.011 2°48.152 6.8 40 9.2 101660 75
2004-04-15 06:42:51 51°15.013 2°48.127 6.8 43 9.2 101670 75
2004-04-15 06:42:57 51°15.015 2°48.09 6.4 38 9.2 101670 75
2004-04-15 06:43:02 51°15.018 2°48.059 7.2 42 9.2 101670 75
2004-04-15 06:43:06 51°15.019 2°48.034 6.5 42 9.2 101670 75
2004-04-15 06:43:12 51°15.022 2°47.997 6.6 321 9.2 101670 75
2004-04-15 06:43:16 51°15.024 2°47.972 6.8 320 9.3 101670 75
2004-04-15 06:43:22 51°15.026 2°47.935 6.6 316 9.3 101670 75
2004-04-15 06:43:26 51°15.028 2°47.91 7 42 9.3 101670 76
2004-04-15 06:43:31 51°15.03 2°47.879 6.8 314 9.2 101670 76
2004-04-15 06:43:36 51°15.032 2°47.848 5.9 314 9.2 101670 76
2004-04-15 06:43:40 51°15.034 2°47.823 6.6 43 9.2 101660 76
2004-04-15 06:43:46 51°15.036 2°47.786 6.2 42 9.2 101660 76
2004-04-15 06:43:51 51°15.038 2°47.755 6.7 318 9.2 101660 76
2004-04-15 06:43:56 51°15.039 2°47.724 7.1 318 9.2 101660 76
2004-04-15 06:44:01 51°15.039 2°47.693 7.3 319 9.2 101660 76
2004-04-15 06:44:06 51°15.038 2°47.662 7.2 317 9.2 101670 76
2004-04-15 06:44:12 51°15.037 2°47.625 7.3 315 9.2 101670 76
2004-04-15 06:44:16 51°15.036 2°47.6 6.8 321 9.2 101670 76
2004-04-15 06:44:22 51°15.035 2°47.563 7.6 317 9.2 101670 76
2004-04-15 06:44:26 51°15.034 2°47.539 7.2 318 9.2 101660 76
2004-04-15 06:44:31 51°15.033 2°47.508 7.3 315 9.2 101660 76
2004-04-15 06:44:36 51°15.032 2°47.477 7.4 315 9.2 101660 76
2004-04-15 06:44:41 51°15.031 2°47.446 7.7 43 9.2 101660 76
2004-04-15 06:44:46 51°15.03 2°47.415 7.5 317 9.2 101660 76
2004-04-15 06:44:51 51°15.028 2°47.385 6.9 319 9.2 101660 76
2004-04-15 06:44:56 51°15.027 2°47.355 7.4 318 9.2 101660 76
2004-04-15 06:45:01 51°15.025 2°47.324 7.3 317 9.2 101670 76
2004-04-15 06:45:06 51°15.023 2°47.294 7.6 316 9.2 101670 76
2004-04-15 06:45:11 51°15.02 2°47.264 7.5 317 9.2 101670 76
2004-04-15 06:45:15 51°15.018 2°47.24 7.2 316 9.2 101670 76
2004-04-15 06:45:22 51°15.013 2°47.198 7.7 315 9.2 101670 76
2004-04-15 06:45:26 51°15.01 2°47.174 7.6 321 9.2 101660 76
2004-04-15 06:45:31 51°15.006 2°47.145 7.6 321 9.2 101660 76
2004-04-15 06:45:36 51°15.002 2°47.115 7.3 322 9.2 101660 76
2004-04-15 06:45:42 51°14.998 2°47.079 7.4 315 9.2 101660 76
2004-04-15 06:45:47 51°14.994 2°47.049 7.5 322 9.2 101660 76
2004-04-15 06:45:52 51°14.99 2°47.02 8 319 9.2 101660 76
2004-04-15 06:45:56 51°14.986 2°46.996 7.5 327 9.2 101660 76
2004-04-15 06:46:02 51°14.982 2°46.961 8.1 324 9.2 101660 76
2004-04-15 06:46:06 51°14.979 2°46.937 7.2 319 9.3 101670 76
2004-04-15 06:46:11 51°14.976 2°46.907 7.5 319 9.3 101670 76
2004-04-15 06:46:16 51°14.973 2°46.877 7.3 317 9.2 101660 76
2004-04-15 06:46:21 51°14.971 2°46.847 6.9 320 9.2 101660 76
2004-04-15 06:46:26 51°14.97 2°46.816 6.8 315 9.2 101660 76
2004-04-15 06:46:31 51°14.968 2°46.786 6.8 316 9.2 101660 76
2004-04-15 06:46:36 51°14.967 2°46.755 7.5 317 9.2 101660 76
2004-04-15 06:46:42 51°14.966 2°46.719 7.2 321 9.2 101670 77
2004-04-15 06:46:46 51°14.964 2°46.694 7.2 42 9.2 101670 77
2004-04-15 06:46:51 51°14.963 2°46.664 7.3 318 9.3 101660 77
2004-04-15 06:46:56 51°14.961 2°46.633 7.3 317 9.3 101660 77
2004-04-15 06:47:02 51°14.959 2°46.596 7.7 319 9.3 101670 77
2004-04-15 06:47:06 51°14.957 2°46.572 7.3 319 9.3 101670 77
2004-04-15 06:47:11 51°14.955 2°46.542 7.2 315 9.2 101670 77
2004-04-15 06:47:16 51°14.953 2°46.511 7.9 317 9.2 101670 77
2004-04-15 06:47:22 51°14.951 2°46.474 7.9 316 9.2 101670 77
2004-04-15 06:47:27 51°14.949 2°46.443 7.8 316 9.3 101670 77
2004-04-15 06:47:31 51°14.947 2°46.419 8.1 317 9.3 101660 77
2004-04-15 06:47:36 51°14.944 2°46.388 7.7 42 9.3 101660 77
2004-04-15 06:47:42 51°14.942 2°46.352 7.4 315 9.3 101660 77
2004-04-15 06:47:46 51°14.94 2°46.327 7 36 9.3 101660 77
2004-04-15 06:47:51 51°14.939 2°46.296 7.7 41 9.3 101660 77
2004-04-15 06:47:55 51°14.937 2°46.272 8.1 319 9.3 101660 77
2004-04-15 06:48:02 51°14.933 2°46.229 8.5 42 9.3 101660 77
2004-04-15 06:48:06 51°14.93 2°46.205 8.5 321 9.2 101670 77
2004-04-15 06:48:11 51°14.925 2°46.175 8.9 318 9.2 101660 77
2004-04-15 06:48:16 51°14.92 2°46.146 8.5 324 9.2 101660 77
2004-04-15 06:48:21 51°14.914 2°46.116 8.2 321 9.3 101660 77
2004-04-15 06:48:26 51°14.909 2°46.086 8.8 317 9.3 101660 77
2004-04-15 06:48:31 51°14.903 2°46.057 8.6 323 9.3 101660 77
2004-04-15 06:48:36 51°14.897 2°46.028 8.6 321 9.3 101660 77
2004-04-15 06:48:41 51°14.891 2°45.998 8.4 325 9.2 101660 77
2004-04-15 06:48:47 51°14.885 2°45.963 8.5 326 9.2 101660 77
2004-04-15 06:48:51 51°14.88 2°45.939 9.3 324 9.2 101660 77
2004-04-15 06:48:56 51°14.874 2°45.909 8.5 319 9.2 101660 77
2004-04-15 06:49:01 51°14.869 2°45.88 9 315 9.2 101660 77
2004-04-15 06:49:06 51°14.865 2°45.85 7.9 324 9.2 101660 77
2004-04-15 06:49:11 51°14.861 2°45.819 8.3 317 9.2 101660 77
2004-04-15 06:49:17 51°14.856 2°45.783 7.7 317 9.2 101660 77
2004-04-15 06:49:22 51°14.853 2°45.753 8.3 321 9.2 101660 77
2004-04-15 06:49:27 51°14.849 2°45.722 7.8 319 9.2 101660 77
2004-04-15 06:49:31 51°14.846 2°45.698 7.6 321 9.2 101660 77
2004-04-15 06:49:37 51°14.843 2°45.661 8 318 9.2 101660 77
2004-04-15 06:49:42 51°14.839 2°45.631 7.9 319 9.2 101670 77
2004-04-15 06:49:46 51°14.837 2°45.606 8.2 318 9.2 101670 77
2004-04-15 06:49:51 51°14.833 2°45.576 7.6 320 9.2 101670 77
2004-04-15 06:49:56 51°14.83 2°45.546 7.9 322 9.2 101670 77
2004-04-15 06:50:02 51°14.826 2°45.509 7.7 317 9.2 101670 77
2004-04-15 06:50:06 51°14.823 2°45.485 7.4 323 9.2 101660 77
2004-04-15 06:50:11 51°14.82 2°45.455 7.5 320 9.2 101660 77
2004-04-15 06:50:16 51°14.816 2°45.424 7.2 320 9.2 101660 77
2004-04-15 06:50:21 51°14.813 2°45.394 7.6 319 9.2 101660 77
2004-04-15 06:50:26 51°14.809 2°45.363 8 324 9.2 101660 77
2004-04-15 06:50:31 51°14.806 2°45.333 8.1 323 9.2 101670 77
2004-04-15 06:50:36 51°14.802 2°45.303 7.5 322 9.2 101670 77
2004-04-15 06:50:42 51°14.798 2°45.267 7.3 322 9.2 101660 77
2004-04-15 06:50:46 51°14.795 2°45.243 7.4 319 9.2 101660 77
2004-04-15 06:50:52 51°14.791 2°45.206 7.6 317 9.2 101660 77
2004-04-15 06:50:56 51°14.788 2°45.182 7.6 322 9.2 101660 78
2004-04-15 06:51:01 51°14.785 2°45.152 7.2 323 9.3 101660 78
2004-04-15 06:51:07 51°14.781 2°45.115 6.9 326 9.3 101660 78
2004-04-15 06:51:11 51°14.779 2°45.091 7.6 321 9.3 101660 78
2004-04-15 06:51:16 51°14.775 2°45.06 7.7 320 9.3 101660 78
2004-04-15 06:51:21 51°14.772 2°45.03 7.9 320 9.3 101660 78
2004-04-15 06:51:26 51°14.769 2°45 7.9 318 9.3 101660 78
2004-04-15 06:51:31 51°14.765 2°44.969 7.8 323 9.3 101660 78
2004-04-15 06:51:36 51°14.762 2°44.939 7.6 321 9.3 101660 78
2004-04-15 06:51:42 51°14.758 2°44.902 7.6 319 9.3 101660 78
2004-04-15 06:51:47 51°14.755 2°44.872 7.6 318 9.3 101660 78
2004-04-15 06:51:51 51°14.752 2°44.847 8 322 9.3 101660 78
2004-04-15 06:51:56 51°14.749 2°44.817 8.3 323 9.3 101660 78
2004-04-15 06:52:01 51°14.746 2°44.786 7.8 318 9.3 101660 78
2004-04-15 06:52:06 51°14.742 2°44.756 7.8 321 9.3 101660 78
2004-04-15 06:52:11 51°14.739 2°44.725 7.4 322 9.3 101660 78
2004-04-15 06:52:16 51°14.736 2°44.695 7.7 320 9.3 101660 78
2004-04-15 06:52:22 51°14.732 2°44.658 8.2 318 9.3 101660 78
2004-04-15 06:52:26 51°14.73 2°44.634 7.4 324 9.3 101660 78
2004-04-15 06:52:31 51°14.726 2°44.603 7.8 319 9.3 101660 78
2004-04-15 06:52:36 51°14.723 2°44.572 7.5 319 9.3 101660 78
2004-04-15 06:52:42 51°14.719 2°44.535 7.6 318 9.3 101660 78
2004-04-15 06:52:46 51°14.717 2°44.511 8.4 318 9.3 101660 78
2004-04-15 06:52:51 51°14.713 2°44.48 8 323 9.3 101660 78
2004-04-15 06:52:56 51°14.71 2°44.45 7.9 38 9.3 101660 78
2004-04-15 06:53:01 51°14.707 2°44.419 7.8 321 9.3 101660 78
2004-04-15 06:53:07 51°14.703 2°44.382 7.5 322 9.3 101660 78
2004-04-15 06:53:11 51°14.7 2°44.358 8.1 320 9.3 101660 78
2004-04-15 06:53:16 51°14.697 2°44.327 7.9 322 9.3 101660 78
2004-04-15 06:53:21 51°14.694 2°44.297 7.9 319 9.3 101660 78
2004-04-15 06:53:27 51°14.69 2°44.26 8.2 320 9.3 101660 78
2004-04-15 06:53:31 51°14.687 2°44.235 7.8 325 9.3 101660 78
2004-04-15 06:53:35 51°14.685 2°44.211 7.6 326 9.3 101660 78
2004-04-15 06:53:42 51°14.681 2°44.168 7.6 322 9.3 101660 78
2004-04-15 06:53:46 51°14.678 2°44.144 8.2 320 9.3 101660 78
2004-04-15 06:53:51 51°14.675 2°44.113 8.4 320 9.3 101660 78
2004-04-15 06:53:56 51°14.671 2°44.082 8.4 321 9.3 101660 78
2004-04-15 06:54:02 51°14.667 2°44.045 8.3 319 9.3 101660 78
2004-04-15 06:54:07 51°14.664 2°44.015 8.1 322 9.3 101660 78
2004-04-15 06:54:11 51°14.661 2°43.99 8 327 9.3 101660 78
2004-04-15 06:54:16 51°14.658 2°43.96 8.1 320 9.3 101660 78
2004-04-15 06:54:21 51°14.655 2°43.929 7.9 320 9.3 101660 78
2004-04-15 06:54:27 51°14.651 2°43.892 7.9 321 9.3 101660 78
2004-04-15 06:54:32 51°14.648 2°43.862 8 324 9.3 101670 78
2004-04-15 06:54:36 51°14.645 2°43.837 7.8 318 9.3 101670 78
2004-04-15 06:54:41 51°14.642 2°43.806 7.6 319 9.3 101660 78
2004-04-15 06:54:47 51°14.638 2°43.77 8.5 319 9.3 101660 78
2004-04-15 06:54:51 51°14.636 2°43.745 7.8 323 9.3 101670 78
2004-04-15 06:54:56 51°14.633 2°43.715 7.6 322 9.3 101670 78
2004-04-15 06:55:01 51°14.63 2°43.684 7.9 321 9.3 101660 78
2004-04-15 06:55:07 51°14.626 2°43.647 8 316 9.3 101660 78
2004-04-15 06:55:11 51°14.623 2°43.623 8.6 319 9.3 101660 77
2004-04-15 06:55:16 51°14.62 2°43.592 8 320 9.3 101660 77
2004-04-15 06:55:22 51°14.616 2°43.556 7.7 321 9.3 101660 77
2004-04-15 06:55:26 51°14.613 2°43.531 7.8 322 9.3 101660 77
2004-04-15 06:55:32 51°14.61 2°43.494 8.1 323 9.3 101660 77
2004-04-15 06:55:36 51°14.607 2°43.47 8 320 9.3 101660 77
2004-04-15 06:55:42 51°14.603 2°43.433 8 326 9.3 101660 77
2004-04-15 06:55:46 51°14.601 2°43.408 7.6 323 9.3 101660 77
2004-04-15 06:55:51 51°14.598 2°43.378 8.3 323 9.3 101660 77
2004-04-15 06:55:56 51°14.595 2°43.347 7.7 330 9.3 101660 77
2004-04-15 06:56:01 51°14.591 2°43.317 8.8 320 9.3 101660 77
2004-04-15 06:56:06 51°14.588 2°43.286 7.3 319 9.3 101660 77
2004-04-15 06:56:11 51°14.585 2°43.255 7.4 321 9.3 101660 77
2004-04-15 06:56:16 51°14.582 2°43.224 7.2 325 9.3 101660 77
2004-04-15 06:56:22 51°14.579 2°43.188 7.4 323 9.3 101660 77
2004-04-15 06:56:26 51°14.576 2°43.163 7.7 326 9.3 101660 77
2004-04-15 06:56:32 51°14.572 2°43.127 7.2 324 9.3 101670 77
2004-04-15 06:56:36 51°14.57 2°43.102 7.7 318 9.3 101670 77
2004-04-15 06:56:42 51°14.566 2°43.065 7.9 317 9.3 101670 77
2004-04-15 06:56:46 51°14.563 2°43.041 8.1 324 9.3 101670 78
2004-04-15 06:56:52 51°14.56 2°43.004 7.8 319 9.3 101660 78
2004-04-15 06:56:56 51°14.557 2°42.98 8.2 319 9.3 101660 78
2004-04-15 06:57:01 51°14.554 2°42.949 7.4 323 9.3 101660 78
2004-04-15 06:57:07 51°14.55 2°42.912 7.7 320 9.3 101660 78
2004-04-15 06:57:11 51°14.548 2°42.888 7.3 325 9.3 101660 78
2004-04-15 06:57:16 51°14.544 2°42.857 7.3 321 9.3 101660 78
2004-04-15 06:57:21 51°14.541 2°42.827 7.4 322 9.3 101660 78
2004-04-15 06:57:27 51°14.538 2°42.79 7.7 322 9.3 101660 78
2004-04-15 06:57:31 51°14.535 2°42.766 7.5 327 9.3 101660 78
2004-04-15 06:57:36 51°14.532 2°42.735 7.9 323 9.3 101660 78
2004-04-15 06:57:42 51°14.528 2°42.699 7.7 320 9.3 101660 78
2004-04-15 06:57:47 51°14.525 2°42.668 8 323 9.3 101670 78
2004-04-15 06:57:51 51°14.522 2°42.643 7.7 320 9.3 101670 78
2004-04-15 06:57:56 51°14.52 2°42.612 8 325 9.3 101670 78
2004-04-15 06:58:02 51°14.517 2°42.574 7.6 321 9.3 101670 78
2004-04-15 06:58:06 51°14.515 2°42.55 7.6 324 9.3 101670 78
2004-04-15 06:58:12 51°14.512 2°42.513 7.3 323 9.3 101670 78
2004-04-15 06:58:16 51°14.509 2°42.488 7.1 331 9.3 101660 78
2004-04-15 06:58:21 51°14.506 2°42.458 7.5 330 9.3 101670 78
2004-04-15 06:58:26 51°14.503 2°42.427 8 327 9.3 101670 78
2004-04-15 06:58:31 51°14.5 2°42.396 7.3 327 9.3 101660 78
2004-04-15 06:58:36 51°14.497 2°42.366 7.4 327 9.3 101660 78
2004-04-15 06:58:41 51°14.494 2°42.335 7.4 325 9.3 101670 78
2004-04-15 06:58:46 51°14.491 2°42.305 7.3 331 9.3 101670 78
2004-04-15 06:58:51 51°14.488 2°42.274 7.7 331 9.3 101670 78
2004-04-15 06:58:56 51°14.485 2°42.243 7.3 328 9.3 101660 78
2004-04-15 06:59:01 51°14.482 2°42.213 7.6 327 9.3 101670 78
2004-04-15 06:59:07 51°14.478 2°42.177 7.5 323 9.3 101670 78
2004-04-15 06:59:11 51°14.476 2°42.152 8.2 318 9.3 101670 78
2004-04-15 06:59:16 51°14.473 2°42.122 7.5 321 9.3 101670 78
2004-04-15 06:59:22 51°14.469 2°42.086 7.2 330 9.3 101670 78
2004-04-15 06:59:27 51°14.466 2°42.055 7.2 331 9.3 101670 78
2004-04-15 06:59:31 51°14.463 2°42.031 8 327 9.3 101670 78
2004-04-15 06:59:36 51°14.46 2°42 7.5 325 9.3 101670 78
2004-04-15 06:59:42 51°14.456 2°41.964 7.5 325 9.3 101670 78
2004-04-15 06:59:47 51°14.453 2°41.933 7.5 325 9.3 101670 78
2004-04-15 06:59:51 51°14.451 2°41.909 8.3 322 9.3 101670 78
2004-04-15 06:59:56 51°14.447 2°41.879 7.5 321 9.3 101670 78
2004-04-15 07:00:01 51°14.444 2°41.849 7.6 328 9.3 101670 78
2004-04-15 07:00:07 51°14.441 2°41.812 7.9 329 9.3 101670 78
2004-04-15 07:00:11 51°14.438 2°41.788 8 323 9.3 101670 78
2004-04-15 07:00:16 51°14.435 2°41.757 7.4 326 9.3 101670 78
2004-04-15 07:00:21 51°14.432 2°41.727 7.8 324 9.3 101660 78
2004-04-15 07:00:26 51°14.429 2°41.697 8.1 329 9.3 101660 78
2004-04-15 07:00:31 51°14.426 2°41.666 7.9 323 9.3 101670 78
2004-04-15 07:00:36 51°14.423 2°41.636 7.7 323 9.3 101670 78
2004-04-15 07:00:41 51°14.42 2°41.605 7.6 321 9.3 101670 78
2004-04-15 07:00:47 51°14.416 2°41.569 7.2 322 9.3 101670 78
2004-04-15 07:00:51 51°14.414 2°41.545 7.4 323 9.3 101670 78
2004-04-15 07:00:56 51°14.411 2°41.514 7.9 326 9.3 101670 78
2004-04-15 07:01:01 51°14.407 2°41.484 7.7 324 9.3 101660 78
2004-04-15 07:01:06 51°14.405 2°41.454 7.4 323 9.3 101660 78
2004-04-15 07:01:11 51°14.402 2°41.423 8.4 326 9.3 101670 78
2004-04-15 07:01:16 51°14.399 2°41.393 7.5 325 9.3 101670 78
2004-04-15 07:01:22 51°14.395 2°41.356 8.2 326 9.3 101660 78
2004-04-15 07:01:27 51°14.392 2°41.326 7.6 321 9.3 101660 78
2004-04-15 07:01:31 51°14.389 2°41.302 7.8 323 9.3 101660 78
2004-04-15 07:01:36 51°14.386 2°41.271 7.8 324 9.3 101660 78
2004-04-15 07:01:41 51°14.383 2°41.24 7.1 327 9.3 101670 78
2004-04-15 07:01:46 51°14.38 2°41.21 7.3 328 9.3 101670 78
2004-04-15 07:01:51 51°14.377 2°41.179 7.4 328 9.3 101670 78
2004-04-15 07:01:56 51°14.374 2°41.149 7.1 329 9.3 101670 78
2004-04-15 07:02:01 51°14.371 2°41.118 7.3 327 9.3 101670 78
2004-04-15 07:02:05 51°14.368 2°41.094 7.1 329 9.3 101670 78
2004-04-15 07:02:11 51°14.365 2°41.058 7.9 326 9.3 101670 78
2004-04-15 07:02:17 51°14.361 2°41.021 7 331 9.3 101670 78
2004-04-15 07:02:21 51°14.359 2°40.997 7.4 329 9.3 101670 78
2004-04-15 07:02:27 51°14.355 2°40.96 7.4 328 9.3 101670 78
2004-04-15 07:02:31 51°14.353 2°40.936 7.6 329 9.3 101670 79
2004-04-15 07:02:36 51°14.35 2°40.906 7.5 325 9.3 101670 79
2004-04-15 07:02:41 51°14.347 2°40.875 7.7 328 9.4 101670 79
2004-04-15 07:02:47 51°14.343 2°40.839 7.2 326 9.4 101670 79
2004-04-15 07:02:51 51°14.34 2°40.815 7.7 323 9.4 101670 79
2004-04-15 07:02:56 51°14.337 2°40.785 7.5 330 9.4 101670 79
2004-04-15 07:03:01 51°14.334 2°40.755 7.3 326 9.4 101670 79
2004-04-15 07:03:07 51°14.33 2°40.718 7.4 327 9.4 101670 79
2004-04-15 07:03:11 51°14.328 2°40.694 7.8 326 9.4 101670 79
2004-04-15 07:03:16 51°14.325 2°40.664 7.2 326 9.4 101670 79
2004-04-15 07:03:21 51°14.322 2°40.634 7.9 326 9.4 101670 79
2004-04-15 07:03:27 51°14.318 2°40.598 7.4 325 9.4 101670 79
2004-04-15 07:03:31 51°14.315 2°40.574 7.3 325 9.4 101670 79
2004-04-15 07:03:36 51°14.312 2°40.544 7 328 9.4 101670 79
2004-04-15 07:03:42 51°14.308 2°40.508 7 327 9.4 101670 79
2004-04-15 07:03:47 51°14.305 2°40.478 7.3 325 9.4 101670 79
2004-04-15 07:03:52 51°14.302 2°40.447 7.1 328 9.4 101670 79
2004-04-15 07:03:56 51°14.299 2°40.423 7 330 9.4 101670 79
2004-04-15 07:04:02 51°14.296 2°40.387 7.1 330 9.4 101670 79
2004-04-15 07:04:06 51°14.293 2°40.363 7.3 329 9.4 101670 79
2004-04-15 07:04:11 51°14.29 2°40.333 6.9 327 9.4 101670 79
2004-04-15 07:04:16 51°14.287 2°40.303 6.9 332 9.4 101670 79
2004-04-15 07:04:21 51°14.284 2°40.273 7.5 328 9.4 101660 79
2004-04-15 07:04:26 51°14.281 2°40.243 6.8 331 9.4 101660 79
2004-04-15 07:04:31 51°14.278 2°40.213 7.3 329 9.4 101670 79
2004-04-15 07:04:36 51°14.275 2°40.183 6.8 330 9.4 101670 79
2004-04-15 07:04:41 51°14.271 2°40.153 7.3 333 9.5 101670 79
2004-04-15 07:04:46 51°14.268 2°40.123 7 331 9.5 101670 79
2004-04-15 07:04:51 51°14.265 2°40.094 7.6 330 9.5 101670 79
2004-04-15 07:04:56 51°14.262 2°40.064 7.8 325 9.5 101670 79
2004-04-15 07:05:01 51°14.259 2°40.034 7.3 326 9.5 101670 79
2004-04-15 07:05:06 51°14.256 2°40.003 7.5 327 9.5 101670 79
2004-04-15 07:05:11 51°14.253 2°39.973 7.4 326 9.5 101670 79
2004-04-15 07:05:16 51°14.25 2°39.943 7.8 327 9.5 101670 79
2004-04-15 07:05:21 51°14.247 2°39.914 7.6 326 9.5 101670 79
2004-04-15 07:05:27 51°14.243 2°39.878 7.4 326 9.5 101670 79
2004-04-15 07:05:31 51°14.24 2°39.854 7.3 326 9.5 101670 79
2004-04-15 07:05:36 51°14.237 2°39.824 7.4 322 9.5 101670 79
2004-04-15 07:05:41 51°14.233 2°39.795 7.5 329 9.5 101670 79
2004-04-15 07:05:46 51°14.23 2°39.765 7.2 326 9.5 101670 79
2004-04-15 07:05:51 51°14.227 2°39.735 6.8 327 9.5 101670 79
2004-04-15 07:05:56 51°14.224 2°39.706 7.2 325 9.5 101670 79
2004-04-15 07:06:02 51°14.221 2°39.67 6.7 326 9.5 101670 79
2004-04-15 07:06:07 51°14.218 2°39.64 6.9 326 9.5 101670 79
2004-04-15 07:06:11 51°14.215 2°39.617 7.1 325 9.5 101670 78
2004-04-15 07:06:16 51°14.212 2°39.587 6.8 331 9.5 101670 78
2004-04-15 07:06:21 51°14.209 2°39.557 6.7 331 9.5 101670 78
2004-04-15 07:06:26 51°14.206 2°39.528 7.2 327 9.5 101670 78
2004-04-15 07:06:31 51°14.203 2°39.498 7.4 329 9.5 101670 78
2004-04-15 07:06:35 51°14.2 2°39.474 7.3 327 9.5 101670 78
2004-04-15 07:06:41 51°14.196 2°39.439 7.4 325 9.5 101670 78
2004-04-15 07:06:47 51°14.193 2°39.403 6.9 323 9.5 101670 78
2004-04-15 07:06:51 51°14.19 2°39.38 6.9 328 9.5 101670 78
2004-04-15 07:06:56 51°14.187 2°39.35 7.2 325 9.5 101670 78
2004-04-15 07:07:01 51°14.184 2°39.32 7 325 9.5 101670 78
2004-04-15 07:07:07 51°14.181 2°39.285 7.1 326 9.5 101670 78
2004-04-15 07:07:11 51°14.178 2°39.261 7 331 9.6 101670 78
2004-04-15 07:07:16 51°14.175 2°39.231 7.1 325 9.6 101670 78
2004-04-15 07:07:21 51°14.172 2°39.201 7.6 328 9.6 101670 78
2004-04-15 07:07:26 51°14.169 2°39.171 7.6 328 9.6 101670 78
2004-04-15 07:07:31 51°14.165 2°39.142 7.1 327 9.6 101670 78
2004-04-15 07:07:36 51°14.162 2°39.113 7.4 333 9.6 101670 78
2004-04-15 07:07:41 51°14.158 2°39.083 7.2 326 9.6 101670 78
2004-04-15 07:07:46 51°14.154 2°39.054 6.9 328 9.6 101670 78
2004-04-15 07:07:51 51°14.151 2°39.024 6.8 332 9.6 101670 78
2004-04-15 07:07:56 51°14.147 2°38.995 7.2 327 9.6 101670 78
2004-04-15 07:08:01 51°14.144 2°38.965 7.2 332 9.6 101670 78
2004-04-15 07:08:06 51°14.141 2°38.936 7.3 329 9.6 101670 78
2004-04-15 07:08:11 51°14.137 2°38.906 7.3 328 9.6 101670 78
2004-04-15 07:08:16 51°14.134 2°38.877 7 330 9.6 101670 78
2004-04-15 07:08:21 51°14.13 2°38.847 6.9 329 9.6 101670 78
2004-04-15 07:08:27 51°14.127 2°38.812 6.6 329 9.6 101670 78
2004-04-15 07:08:31 51°14.124 2°38.789 6.7 332 9.6 101670 78
2004-04-15 07:08:36 51°14.121 2°38.759 7.2 334 9.6 101670 78
2004-04-15 07:08:41 51°14.117 2°38.729 6.9 333 9.6 101670 78
2004-04-15 07:08:46 51°14.113 2°38.699 7.4 335 9.6 101670 78
2004-04-15 07:08:51 51°14.109 2°38.67 7.8 331 9.6 101670 78
2004-04-15 07:08:56 51°14.106 2°38.64 8.2 328 9.6 101670 78
2004-04-15 07:09:01 51°14.1 2°38.612 7.9 331 9.7 101670 79
2004-04-15 07:09:06 51°14.095 2°38.583 7.9 329 9.7 101670 79
2004-04-15 07:09:11 51°14.089 2°38.554 8.6 330 9.7 101670 79
2004-04-15 07:09:16 51°14.082 2°38.526 9 325 9.7 101670 79
2004-04-15 07:09:21 51°14.075 2°38.498 8.3 327 9.7 101660 79
2004-04-15 07:09:27 51°14.067 2°38.464 8.3 328 9.7 101660 79
2004-04-15 07:09:31 51°14.061 2°38.441 8.3 330 9.7 101660 79
2004-04-15 07:09:37 51°14.052 2°38.408 8.7 332 9.7 101660 79
2004-04-15 07:09:41 51°14.046 2°38.386 8.6 330 9.7 101660 78
2004-04-15 07:09:46 51°14.039 2°38.358 8.9 332 9.7 101660 78
2004-04-15 07:09:51 51°14.031 2°38.331 8.8 329 9.7 101660 78
2004-04-15 07:09:56 51°14.023 2°38.303 8.6 332 9.7 101660 78
2004-04-15 07:10:02 51°14.014 2°38.27 8.3 329 9.7 101660 78
2004-04-15 07:10:07 51°14.006 2°38.242 8.3 331 9.7 101660 78
2004-04-15 07:10:11 51°14 2°38.22 8 331 9.7 101660 78
2004-04-15 07:10:16 51°13.992 2°38.192 8.4 333 9.7 101660 78
2004-04-15 07:10:21 51°13.985 2°38.165 8.2 332 9.7 101660 78
2004-04-15 07:10:26 51°13.977 2°38.137 8.2 330 9.7 101660 78
2004-04-15 07:10:31 51°13.97 2°38.109 8.8 329 9.7 101660 78
2004-04-15 07:10:36 51°13.962 2°38.082 8.5 331 9.7 101660 78
2004-04-15 07:10:41 51°13.954 2°38.054 8.7 331 9.7 101660 78
2004-04-15 07:10:47 51°13.946 2°38.021 8.8 329 9.7 101660 78
2004-04-15 07:10:51 51°13.94 2°37.999 8.7 330 9.7 101660 78
2004-04-15 07:10:55 51°13.933 2°37.977 8.7 330 9.7 101660 78
2004-04-15 07:11:01 51°13.924 2°37.943 8.5 334 9.7 101660 78
2004-04-15 07:11:06 51°13.917 2°37.916 8.3 329 9.7 101660 78
2004-04-15 07:11:12 51°13.908 2°37.882 8.7 331 9.7 101660 78
2004-04-15 07:11:16 51°13.902 2°37.86 8.5 330 9.7 101660 78
2004-04-15 07:11:21 51°13.894 2°37.833 8.2 328 9.7 101660 78
2004-04-15 07:11:26 51°13.887 2°37.806 8.4 332 9.7 101660 78
2004-04-15 07:11:31 51°13.879 2°37.778 8.6 329 9.7 101660 78
2004-04-15 07:11:36 51°13.872 2°37.75 8.4 328 9.7 101660 78
2004-04-15 07:11:41 51°13.864 2°37.722 8.1 327 9.7 101660 78
2004-04-15 07:11:47 51°13.856 2°37.689 8.4 332 9.7 101660 78
2004-04-15 07:11:51 51°13.85 2°37.666 7.8 335 9.7 101660 77
2004-04-15 07:11:56 51°13.842 2°37.639 8.4 335 9.7 101660 77
2004-04-15 07:12:02 51°13.833 2°37.605 8.6 332 9.8 101660 77
2004-04-15 07:12:07 51°13.826 2°37.578 8 332 9.8 101660 77
2004-04-15 07:12:11 51°13.82 2°37.555 8.2 332 9.8 101660 77
2004-04-15 07:12:15 51°13.814 2°37.533 8.1 330 9.8 101660 77
2004-04-15 07:12:21 51°13.805 2°37.5 8.5 327 9.7 101660 77
2004-04-15 07:12:27 51°13.796 2°37.466 8.2 332 9.7 101660 77
2004-04-15 07:12:32 51°13.788 2°37.439 8.4 332 9.8 101660 77
2004-04-15 07:12:36 51°13.783 2°37.416 8.6 326 9.8 101660 77
2004-04-15 07:12:41 51°13.775 2°37.389 7.8 331 9.8 101660 77
2004-04-15 07:12:47 51°13.766 2°37.355 8.4 328 9.8 101660 77
2004-04-15 07:12:51 51°13.76 2°37.333 8.1 330 9.7 101660 77
2004-04-15 07:12:56 51°13.753 2°37.305 8.5 329 9.7 101660 77
2004-04-15 07:13:01 51°13.746 2°37.277 8.5 327 9.8 101660 77
2004-04-15 07:13:07 51°13.737 2°37.243 8.6 327 9.8 101660 77
2004-04-15 07:13:11 51°13.731 2°37.221 8.4 329 9.8 101660 77
2004-04-15 07:13:16 51°13.723 2°37.194 9.2 325 9.8 101660 77
2004-04-15 07:13:22 51°13.713 2°37.161 8.7 326 9.8 101660 77
2004-04-15 07:13:27 51°13.704 2°37.134 8.1 329 9.8 101660 77
2004-04-15 07:13:31 51°13.698 2°37.113 8.6 328 9.8 101660 77
2004-04-15 07:13:36 51°13.689 2°37.087 8.6 329 9.8 101660 77
2004-04-15 07:13:42 51°13.678 2°37.055 8.4 328 9.8 101650 77
2004-04-15 07:13:47 51°13.669 2°37.028 9 332 9.8 101650 77
2004-04-15 07:13:51 51°13.662 2°37.007 9.1 329 9.8 101660 77
2004-04-15 07:13:56 51°13.653 2°36.981 9 332 9.8 101660 77
2004-04-15 07:14:02 51°13.643 2°36.949 8.5 330 9.8 101660 77
2004-04-15 07:14:07 51°13.633 2°36.922 8.9 330 9.8 101660 77
2004-04-15 07:14:11 51°13.626 2°36.901 8.7 327 9.7 101660 77
2004-04-15 07:14:15 51°13.619 2°36.88 9.1 327 9.7 101660 77
2004-04-15 07:14:21 51°13.608 2°36.848 8.4 330 9.8 101660 77
2004-04-15 07:14:26 51°13.6 2°36.821 8.3 330 9.8 101660 77
2004-04-15 07:14:31 51°13.591 2°36.795 8.3 330 9.8 101660 77
2004-04-15 07:14:36 51°13.582 2°36.768 8.3 334 9.8 101660 77
2004-04-15 07:14:41 51°13.573 2°36.741 8.2 332 9.8 101660 77
2004-04-15 07:14:47 51°13.563 2°36.709 8.5 330 9.8 101660 77
2004-04-15 07:14:51 51°13.556 2°36.688 8.4 331 9.8 101660 77
2004-04-15 07:14:56 51°13.547 2°36.661 8.7 329 9.8 101660 77
2004-04-15 07:15:01 51°13.539 2°36.635 8.4 331 9.8 101660 77
2004-04-15 07:15:07 51°13.528 2°36.602 9 329 9.8 101660 77
2004-04-15 07:15:11 51°13.521 2°36.581 8.4 327 9.8 101660 77
2004-04-15 07:15:16 51°13.513 2°36.554 8.6 331 9.8 101660 77
2004-04-15 07:15:21 51°13.504 2°36.528 8.6 332 9.8 101660 77
2004-04-15 07:15:26 51°13.495 2°36.501 9 329 9.8 101660 77
2004-04-15 07:15:31 51°13.486 2°36.475 9 330 9.8 101660 77
2004-04-15 07:15:36 51°13.478 2°36.449 9.2 327 9.8 101660 77
2004-04-15 07:15:42 51°13.467 2°36.417 9.2 328 9.8 101660 77
2004-04-15 07:15:47 51°13.459 2°36.39 9 329 9.8 101660 77
2004-04-15 07:15:51 51°13.452 2°36.369 8.7 329 9.8 101660 77
2004-04-15 07:15:56 51°13.443 2°36.343 8.8 332 9.8 101660 77
2004-04-15 07:16:02 51°13.432 2°36.312 9 330 9.8 101650 77
2004-04-15 07:16:06 51°13.424 2°36.292 9.2 331 9.8 101650 77
2004-04-15 07:16:11 51°13.414 2°36.267 9.6 332 9.8 101660 77
2004-04-15 07:16:15 51°13.406 2°36.247 9.5 332 9.8 101660 77
2004-04-15 07:16:22 51°13.391 2°36.213 9.2 330 9.8 101660 77
2004-04-15 07:16:27 51°13.38 2°36.189 9.3 330 9.8 101660 77
2004-04-15 07:16:31 51°13.371 2°36.169 9.4 330 9.8 101660 77
2004-04-15 07:16:36 51°13.36 2°36.145 9.5 330 9.8 101660 77
2004-04-15 07:16:41 51°13.349 2°36.121 9.3 333 9.8 101650 77
2004-04-15 07:16:47 51°13.335 2°36.092 8.8 332 9.8 101650 77
2004-04-15 07:16:51 51°13.327 2°36.073 9 328 9.8 101650 77
2004-04-15 07:16:56 51°13.316 2°36.048 9.2 331 9.8 101650 77
2004-04-15 07:17:01 51°13.305 2°36.024 8.8 330 9.8 101650 77
2004-04-15 07:17:07 51°13.293 2°35.994 8.9 329 9.8 101650 77
2004-04-15 07:17:12 51°13.282 2°35.97 9 331 9.8 101650 77
2004-04-15 07:17:16 51°13.273 2°35.95 8.9 328 9.8 101650 77
2004-04-15 07:17:22 51°13.26 2°35.92 9 332 9.8 101650 77
2004-04-15 07:17:27 51°13.25 2°35.896 9.1 330 9.8 101650 77
2004-04-15 07:17:31 51°13.241 2°35.876 9 334 9.8 101650 77
2004-04-15 07:17:36 51°13.231 2°35.852 9.3 332 9.8 101650 77
2004-04-15 07:17:42 51°13.218 2°35.822 8.9 328 9.8 101650 77
2004-04-15 07:17:47 51°13.207 2°35.798 8.7 331 9.8 101650 77
2004-04-15 07:17:51 51°13.199 2°35.778 9 329 9.8 101650 77
2004-04-15 07:17:56 51°13.188 2°35.753 9 331 9.8 101650 77
2004-04-15 07:18:02 51°13.176 2°35.724 9 332 9.8 101650 77
2004-04-15 07:18:07 51°13.165 2°35.699 8.8 334 9.8 101650 77
2004-04-15 07:18:11 51°13.157 2°35.68 8.9 332 9.8 101660 77
2004-04-15 07:18:15 51°13.148 2°35.66 8.7 334 9.8 101660 77
2004-04-15 07:18:21 51°13.135 2°35.631 9.2 332 9.8 101650 77
2004-04-15 07:18:26 51°13.125 2°35.606 9 332 9.8 101650 77
2004-04-15 07:18:31 51°13.114 2°35.581 8.8 331 9.8 101650 77
2004-04-15 07:18:36 51°13.103 2°35.557 9.3 329 9.8 101650 77
2004-04-15 07:18:41 51°13.092 2°35.532 9.2 330 9.8 101660 77
2004-04-15 07:18:47 51°13.08 2°35.502 8.9 328 9.8 101660 77
2004-04-15 07:18:51 51°13.071 2°35.483 9.8 327 9.8 101650 77
2004-04-15 07:18:56 51°13.06 2°35.458 9.3 327 9.8 101650 77
2004-04-15 07:19:01 51°13.05 2°35.433 9.8 326 9.8 101650 77
2004-04-15 07:19:07 51°13.037 2°35.404 9.6 326 9.8 101650 77
2004-04-15 07:19:11 51°13.029 2°35.384 9.6 326 9.8 101650 77
2004-04-15 07:19:16 51°13.018 2°35.36 9.1 327 9.8 101650 77
2004-04-15 07:19:21 51°13.007 2°35.335 9.4 327 9.8 101650 77
2004-04-15 07:19:26 51°12.997 2°35.31 9.4 329 9.8 101650 77
2004-04-15 07:19:31 51°12.987 2°35.286 9.1 332 9.8 101650 77
2004-04-15 07:19:36 51°12.977 2°35.261 9.3 327 9.8 101650 77
2004-04-15 07:19:41 51°12.967 2°35.236 9.8 327 9.8 101650 77
2004-04-15 07:19:47 51°12.954 2°35.207 9.6 326 9.8 101650 77
2004-04-15 07:19:51 51°12.946 2°35.187 10.4 325 9.8 101650 77
2004-04-15 07:19:56 51°12.936 2°35.163 10.5 325 9.8 101650 77
2004-04-15 07:20:01 51°12.925 2°35.138 10 328 9.8 101650 77
2004-04-15 07:20:07 51°12.912 2°35.109 10 328 9.8 101650 77
2004-04-15 07:20:11 51°12.904 2°35.09 10.3 326 9.8 101650 77
2004-04-15 07:20:16 51°12.893 2°35.066 9.7 323 9.8 101650 77
2004-04-15 07:20:21 51°12.882 2°35.041 9.4 328 9.8 101650 77
2004-04-15 07:20:25 51°12.874 2°35.022 9.3 328 9.8 101650 77
2004-04-15 07:20:31 51°12.861 2°34.993 10.1 328 9.8 101650 77
2004-04-15 07:20:36 51°12.85 2°34.97 10.2 330 9.8 101650 77
2004-04-15 07:20:41 51°12.838 2°34.947 10.3 327 9.8 101650 77
2004-04-15 07:20:46 51°12.827 2°34.924 10.3 328 9.8 101650 77
2004-04-15 07:20:51 51°12.815 2°34.901 11.1 327 9.8 101650 77
2004-04-15 07:20:56 51°12.803 2°34.878 10.2 330 9.8 101650 77
2004-04-15 07:21:01 51°12.792 2°34.855 10.6 327 9.8 101650 77
2004-04-15 07:21:06 51°12.78 2°34.832 10.9 326 9.8 101650 77
2004-04-15 07:21:11 51°12.768 2°34.809 11.1 325 9.8 101650 77
2004-04-15 07:21:16 51°12.757 2°34.785 11.1 330 9.8 101650 77
2004-04-15 07:21:22 51°12.743 2°34.758 10.9 326 9.8 101650 77
2004-04-15 07:21:27 51°12.731 2°34.734 12.3 322 9.8 101650 77
2004-04-15 07:21:31 51°12.722 2°34.716 11.4 320 9.8 101650 77
2004-04-15 07:21:37 51°12.708 2°34.689 12.2 326 9.8 101650 77
2004-04-15 07:21:41 51°12.699 2°34.67 11.6 325 9.7 101650 77
2004-04-15 07:21:46 51°12.687 2°34.647 11.3 326 9.7 101650 77
2004-04-15 07:21:51 51°12.676 2°34.625 12.1 323 9.7 101650 77
2004-04-15 07:21:56 51°12.664 2°34.602 11.4 326 9.7 101650 77
2004-04-15 07:22:02 51°12.65 2°34.574 11.2 328 9.7 101650 77
2004-04-15 07:22:07 51°12.639 2°34.552 11.1 329 9.7 101650 77
2004-04-15 07:22:12 51°12.627 2°34.53 11.3 332 9.7 101650 77
2004-04-15 07:22:16 51°12.616 2°34.513 10.9 331 9.7 101650 77
2004-04-15 07:22:21 51°12.603 2°34.493 10.1 334 9.7 101650 77
2004-04-15 07:22:26 51°12.59 2°34.473 10.2 331 9.7 101650 77
2004-04-15 07:22:31 51°12.576 2°34.453 9.9 334 9.7 101650 77
2004-04-15 07:22:36 51°12.563 2°34.434 11 333 9.7 101650 77
2004-04-15 07:22:42 51°12.547 2°34.411 10.5 332 9.7 101660 77
2004-04-15 07:22:47 51°12.533 2°34.392 10.9 330 9.7 101660 77
2004-04-15 07:22:51 51°12.522 2°34.377 10.6 331 9.7 101650 77
2004-04-15 07:22:56 51°12.509 2°34.358 10.7 331 9.7 101650 77
2004-04-15 07:23:02 51°12.492 2°34.335 10.1 331 9.7 101650 77
2004-04-15 07:23:07 51°12.479 2°34.316 10.8 331 9.7 101650 77
2004-04-15 07:23:11 51°12.468 2°34.301 10.2 331 9.7 101650 77
2004-04-15 07:23:16 51°12.455 2°34.281 10 334 9.7 101650 77
2004-04-15 07:23:21 51°12.441 2°34.262 11 334 9.7 101640 77
2004-04-15 07:23:27 51°12.425 2°34.239 10.8 332 9.7 101640 77
2004-04-15 07:23:31 51°12.415 2°34.224 10.6 329 9.7 101650 77
2004-04-15 07:23:36 51°12.401 2°34.205 10 334 9.7 101650 77
2004-04-15 07:23:41 51°12.387 2°34.186 10.5 333 9.7 101650 77
2004-04-15 07:23:46 51°12.374 2°34.167 10.4 333 9.7 101650 77
2004-04-15 07:23:51 51°12.361 2°34.147 10.2 335 9.7 101650 77
2004-04-15 07:23:56 51°12.348 2°34.128 9.7 335 9.7 101650 77
2004-04-15 07:24:02 51°12.332 2°34.105 9.8 337 9.7 101650 77
2004-04-15 07:24:07 51°12.318 2°34.086 10.8 334 9.7 101650 77
2004-04-15 07:24:11 51°12.308 2°34.07 9.8 337 9.7 101650 77
2004-04-15 07:24:16 51°12.295 2°34.051 10.1 333 9.7 101650 77
2004-04-15 07:24:21 51°12.282 2°34.032 10.9 333 9.7 101650 77
2004-04-15 07:24:26 51°12.268 2°34.012 10.8 339 9.7 101650 77
2004-04-15 07:24:31 51°12.255 2°33.993 10.5 334 9.7 101650 77
2004-04-15 07:24:37 51°12.239 2°33.97 11 337 9.7 101650 77
2004-04-15 07:24:41 51°12.228 2°33.955 10.7 336 9.7 101650 77
2004-04-15 07:24:46 51°12.215 2°33.936 11.1 335 9.7 101650 77
2004-04-15 07:24:51 51°12.202 2°33.916 10.9 335 9.7 101650 77
2004-04-15 07:24:56 51°12.188 2°33.897 10.7 335 9.7 101650 77
2004-04-15 07:25:02 51°12.173 2°33.874 10.5 335 9.7 101650 77
2004-04-15 07:25:07 51°12.159 2°33.855 11 335 9.7 101650 77
2004-04-15 07:25:11 51°12.149 2°33.839 11.3 335 9.7 101650 77
2004-04-15 07:25:16 51°12.135 2°33.82 11.1 335 9.7 101650 77
2004-04-15 07:25:21 51°12.122 2°33.801 10.8 336 9.8 101650 77
2004-04-15 07:25:26 51°12.108 2°33.782 11.7 335 9.8 101650 77
2004-04-15 07:25:31 51°12.095 2°33.762 11.6 334 9.7 101640 77
2004-04-15 07:25:36 51°12.082 2°33.743 12.6 334 9.7 101640 77
2004-04-15 07:25:41 51°12.068 2°33.724 11.9 336 9.7 101650 77
2004-04-15 07:25:46 51°12.055 2°33.705 12.5 335 9.7 101650 77
2004-04-15 07:25:51 51°12.042 2°33.685 12.6 332 9.7 101650 77
2004-04-15 07:25:56 51°12.029 2°33.666 12.1 332 9.7 101650 77
2004-04-15 07:26:02 51°12.014 2°33.644 11.9 331 9.8 101650 77
2004-04-15 07:26:07 51°12.002 2°33.627 12.4 328 9.8 101650 77
2004-04-15 07:26:11 51°11.993 2°33.615 11.5 332 9.7 101650 77
2004-04-15 07:26:16 51°11.983 2°33.601 11.1 328 9.7 101650 77
2004-04-15 07:26:22 51°11.971 2°33.588 11.1 329 9.8 101640 77
2004-04-15 07:26:27 51°11.961 2°33.578 10.4 330 9.8 101640 77
2004-04-15 07:26:31 51°11.953 2°33.572 9.6 333 9.7 101640 77
2004-04-15 07:26:36 51°11.944 2°33.565 9.6 329 9.7 101640 77
2004-04-15 07:26:41 51°11.935 2°33.56 8.6 336 9.7 101650 76
2004-04-15 07:26:47 51°11.925 2°33.555 8.3 336 9.7 101650 76
2004-04-15 07:26:51 51°11.918 2°33.552 8.3 338 9.7 101650 76
2004-04-15 07:26:57 51°11.909 2°33.548 8.9 334 9.7 101650 76
2004-04-15 07:27:01 51°11.903 2°33.546 7.8 331 9.7 101650 76
2004-04-15 07:27:06 51°11.896 2°33.543 8.8 332 9.7 101650 76
2004-04-15 07:27:11 51°11.889 2°33.541 7.9 335 9.7 101650 76
2004-04-15 07:27:16 51°11.882 2°33.538 8.2 334 9.7 101650 76
2004-04-15 07:27:21 51°11.876 2°33.536 7 325 9.7 101660 76
2004-04-15 07:27:27 51°11.868 2°33.533 7.6 320 9.7 101660 76
2004-04-15 07:27:31 51°11.864 2°33.531 8.4 326 9.7 101660 76
2004-04-15 07:27:36 51°11.858 2°33.528 8 322 9.7 101660 76
2004-04-15 07:27:42 51°11.852 2°33.524 8 324 9.7 101650 76
2004-04-15 07:27:45 51°11.849 2°33.522 7.8 318 9.7 101650 76
2004-04-15 07:27:51 51°11.843 2°33.518 7.8 315 9.8 101660 76
2004-04-15 07:27:56 51°11.838 2°33.515 8.3 318 9.8 101660 76
2004-04-15 07:28:02 51°11.833 2°33.511 7.7 317 9.7 101650 76
2004-04-15 07:28:07 51°11.828 2°33.508 7.6 318 9.7 101650 76
2004-04-15 07:28:11 51°11.825 2°33.506 7.9 317 9.7 101650 76
2004-04-15 07:28:16 51°11.821 2°33.503 7.8 318 9.7 101650 76
2004-04-15 07:28:22 51°11.815 2°33.5 7.2 319 9.7 101660 76
2004-04-15 07:28:27 51°11.811 2°33.498 7.8   9.7 101660 76
2004-04-15 07:28:31 51°11.808 2°33.497 7.2 323 9.7 101660 76
2004-04-15 07:28:36 51°11.804 2°33.495 7.7 323 9.7 101660 76
2004-04-15 07:28:42 51°11.799 2°33.493 7.4 326 9.7 101660 76
2004-04-15 07:28:47 51°11.795 2°33.492 8.6 326 9.7 101660 76
2004-04-15 07:28:51 51°11.792 2°33.491 8.2 319 9.7 101650 76
2004-04-15 07:28:56 51°11.788 2°33.49 7.9 322 9.7 101650 76
2004-04-15 07:29:01 51°11.784 2°33.489 7.7 324 9.7 101660 76
2004-04-15 07:29:07 51°11.779 2°33.488 7.6 328 9.7 101660 76
2004-04-15 07:29:11 51°11.776 2°33.487 7.1 322 9.7 101660 76
2004-04-15 07:29:16 51°11.773 2°33.486 6.8 326 9.7 101660 76
2004-04-15 07:29:21 51°11.769 2°33.485 7.6 326 9.7 101660 76
2004-04-15 07:29:26 51°11.765 2°33.484 7.3 324 9.7 101660 76
2004-04-15 07:29:31 51°11.761 2°33.483 6.8 324 9.7 101660 76
2004-04-15 07:29:36 51°11.758 2°33.483 7.6 325 9.7 101660 76
2004-04-15 07:29:41 51°11.754 2°33.482 7.9 327 9.7 101660 76
2004-04-15 07:29:47 51°11.75 2°33.481 7.2 325 9.7 101660 76
2004-04-15 07:29:51 51°11.747 2°33.48 7.4 322 9.7 101660 76
2004-04-15 07:29:56 51°11.744 2°33.479 7.2 329 9.7 101660 76
2004-04-15 07:30:02 51°11.739 2°33.478 7.7 326 9.7 101660 76
2004-04-15 07:30:07 51°11.736 2°33.477 7.7 327 9.7 101660 76
2004-04-15 07:30:11 51°11.733 2°33.476 8 327 9.7 101660 76
2004-04-15 07:30:16 51°11.729 2°33.475 8.1 329 9.7 101660 76
2004-04-15 07:30:22 51°11.725 2°33.474 8.3 327 9.7 101650 76
2004-04-15 07:30:27 51°11.721 2°33.473 8 326 9.7 101650 76
2004-04-15 07:30:31 51°11.718 2°33.471 7.9 326 9.7 101660 76
2004-04-15 07:30:36 51°11.714 2°33.47 8.1 326 9.7 101660 76
2004-04-15 07:30:42 51°11.71 2°33.467 8.1 322 9.6 101650 76
2004-04-15 07:30:47 51°11.706 2°33.465 7.9 323 9.6 101650 76
2004-04-15 07:30:51 51°11.703 2°33.463 8.2 319 9.6 101650 76
2004-04-15 07:30:56 51°11.699 2°33.461 7.3 321 9.6 101650 76
2004-04-15 07:31:01 51°11.695 2°33.459 7.8 320 9.6 101650 76
2004-04-15 07:31:07 51°11.69 2°33.455 7.1 320 9.6 101650 76
2004-04-15 07:31:11 51°11.687 2°33.453 7.2 316 9.6 101660 76
2004-04-15 07:31:16 51°11.683 2°33.45 7.9 316 9.6 101660 76
2004-04-15 07:31:21 51°11.679 2°33.447 7.9 43 9.6 101660 76
2004-04-15 07:31:27 51°11.675 2°33.443 8 316 9.6 101660 76
2004-04-15 07:31:31 51°11.672 2°33.44 7.4 41 9.6 101660 76
2004-04-15 07:31:37 51°11.668 2°33.435 8 43 9.6 101660 76
2004-04-15 07:31:41 51°11.665 2°33.432 7.8 227 9.6 101650 76
2004-04-15 07:31:46 51°11.662 2°33.428 7.5 314 9.6 101650 76
2004-04-15 07:31:51 51°11.658 2°33.423 7.4 311 9.6 101660 76
2004-04-15 07:31:56 51°11.655 2°33.419 7.9 310 9.6 101660 76
2004-04-15 07:32:02 51°11.651 2°33.413 7.4 313 9.6 101650 76
2004-04-15 07:32:07 51°11.647 2°33.408 7.5 310 9.6 101650 76
2004-04-15 07:32:11 51°11.645 2°33.405 7.2 310 9.6 101660 76
2004-04-15 07:32:16 51°11.642 2°33.399 7.1 311 9.6 101660 76
2004-04-15 07:32:21 51°11.639 2°33.394 7.7 306 9.6 101660 76
2004-04-15 07:32:26 51°11.636 2°33.389 7 305 9.6 101660 76
2004-04-15 07:32:31 51°11.633 2°33.384 7.2 307 9.6 101660 77
2004-04-15 07:32:37 51°11.63 2°33.377 7.2 306 9.6 101660 77
2004-04-15 07:32:41 51°11.628 2°33.372 7.1 306 9.6 101660 77
2004-04-15 07:32:46 51°11.625 2°33.366 7.8 304 9.6 101660 77
2004-04-15 07:32:51 51°11.623 2°33.361 6.5 305 9.6 101660 77
2004-04-15 07:32:56 51°11.62 2°33.355 6.7 310 9.6 101660 77
2004-04-15 07:33:02 51°11.617 2°33.348 6.4 307 9.6 101660 77
2004-04-15 07:33:07 51°11.615 2°33.342 6.2 306 9.6 101660 77
2004-04-15 07:33:12 51°11.612 2°33.337 6.7 302 9.6 101660 77
2004-04-15 07:33:16 51°11.61 2°33.332 6.8 304 9.6 101660 77
2004-04-15 07:33:21 51°11.608 2°33.326 7 303 9.6 101660 77
2004-04-15 07:33:27 51°11.605 2°33.319 6.7 303 9.6 101660 77
2004-04-15 07:33:31 51°11.603 2°33.315 7.1 310 9.6 101660 77
2004-04-15 07:33:36 51°11.601 2°33.309 7.5 304 9.6 101660 77
2004-04-15 07:33:41 51°11.599 2°33.303 6.5 303 9.6 101660 77
2004-04-15 07:33:47 51°11.596 2°33.295 7.3 300 9.6 101660 77
2004-04-15 07:33:51 51°11.595 2°33.29 7.1 299 9.6 101660 77